www.pogodaiklimat.ru
ПОГОДА в Аэропорту Султана Хасануддин
Время
(UTC), дата
15 18.02
18 18.02
21 18.02
00 19.02
03 19.02
06 19.02
09 19.02
12 19.02
15 19.02
18 19.02
21 19.02
00 20.02
03 20.02
06 20.02
09 20.02
12 20.02
15 20.02
18 20.02
21 20.02
00 21.02
03 21.02
06 21.02
09 21.02
12 21.02
15 21.02
18 21.02
21 21.02
00 22.02
03 22.02
06 22.02
09 22.02
12 22.02
15 22.02
18 22.02
21 22.02
00 23.02
03 23.02
06 23.02
09 23.02
12 23.02
15 23.02
18 23.02
21 23.02
00 24.02
03 24.02
06 24.02
09 24.02
12 24.02
15 24.02
18 24.02
21 24.02
00 25.02
03 25.02
06 25.02
09 25.02
12 25.02
Ветер
(напр.,м/с)
Видим. Явления Облачность Т
(С)
Тd
(С)
f
(%)
Тe
(С)
Тes
(С)
Комфортность P
(гПа)
Po
(гПа)
Тmin
(С)
Tmax
(С)
R
(мм)
R24
(мм)
S
(см)
ЮВ 1 7000 м слаб. дождь 9/4 540 м
[Cu med, cong As op Ci fib]
+24.4 +24.0 98 +34 +34 очень
душно
1012.5 1010.8 0.0
В 3 6000 м слаб. дождь 9/4 540 м
[Cb cap As op Ci fib]
+24.0 +23.0 94 +32 +32 очень
душно
1011.0 1009.3 6
В 2 8000 м в посл. час дождь 8/4 570 м
[Cu med, cong Ac trans Ci fib]
+23.8 +22.8 94 +31 +31 очень
душно
1010.8 1009.1 3
В 1 9000 м в посл. час дождь 10/5 540 м
[Cb cap As op Ci fib]
+25.2 +23.9 93 +35 +36 очень
душно
1012.3 1010.7 +23.4 1 77
В 3 9000 м слаб. дождь 10/4 540 м
[Cb cap As op Ci fib]
+24.6 +23.9 96 +34 +39 очень
душно
1012.5 1010.8 36
В 1 10 км {дождь} 9/3 570 м
[Cu med, cong As op Ci sp]
+28.8 +25.2 81 +42 +50 опасность
перегрева
1010.1 1008.4 0.0
В 2 7000 м слаб. ливневой дождь, в посл. час гроза 10/5 500 м
[Cb cap As op Ci sp]
+25.6 +24.4 93 +36 +36 очень
душно
1009.6 1007.9 3
В 1 8000 м {дождь} 9/3 300 м
[Cu med, cong Ac As Ci sp]
+24.8 +24.1 96 +34 +34 очень
душно
1011.2 1009.6 +28.8 4
В 1 8000 м 9/3 570 м
[Cu med, cong Ac trans Ci sp]
+24.4 +23.7 96 +33 +33 очень
душно
1011.7 1010.1
штиль 0 8000 м 8/3 570 м
[Cu med, cong Ac trans Ci sp]
+24.4 +23.4 94 +33 +33 очень
душно
1010.1 1008.4
штиль 0 8000 м 9/3 570 м
[Cu med, cong Ac trans Ci sp]
+24.2 +23.2 94 +32 +32 очень
душно
1009.9 1008.2
штиль 0 10 км 9/4 570 м
[Cu med, cong Ac trans Ci fib]
+27.2 +24.8 87 +39 +41 очень
душно
1011.6 1010.0 +23.4 43
З 2 10 км 9/5 540 м
[Cb cap Ac trans Ci fib]
+30.6 +25.2 73 +44 +50 опасность
перегрева
1011.8 1010.1
ЮЗ 1 5000 м гроза, ливневой дождь 10/5 500 м
[Cb cap As op Ci sp]
+23.8 +22.8 94 +31 +37 очень
душно
1010.3 1008.6 35
В 2 10 км {гроза, дождь} 9/4 540 м
[Cb cap As op Ci sp]
+25.7 +23.9 90 +35 +36 очень
душно
1009.7 1008.0 +31.1 3
В 1 8000 м {гроза, дождь} 8/3 570 м
[Cu med, cong Ac As Ci fib]
+24.9 +23.3 91 +33 +33 очень
душно
1011.6 1009.9 +31.1 3
штиль 0 8000 м 9/3 570 м
[Cu med, cong Ac trans Ci fib]
+24.2 +23.2 94 +32 +32 очень
душно
1013.4 1011.7
В 1 8000 м 8/3 570 м
[Cu med, cong Ac trans Ci fib]
+24.2 +23.1 94 +32 +32 очень
душно
1011.6 1009.9
штиль 0 8000 м 8/3 570 м
[Cu med, cong Ac trans Ci fib]
+24.0 +22.7 92 +31 +31 очень
душно
1011.2 1009.5
В 1 10 км 9/3 570 м
[Cu med, cong Ac trans Ci fib]
+26.0 +23.6 87 +35 +38 очень
душно
1012.5 1010.8 +23.4 38
З 2 10 км 6/3 570 м
[Cu med, cong Ac trans Ci fib]
+31.1 +25.0 70 +45 +57 опасность
перегрева
1012.8 1011.1
СЗ 2 10 км 8/3 540 м
[Cb cap Ac lent Ci fib]
+31.5 +24.7 67 +44 +52 опасность
перегрева
1010.3 1008.7
З 2 10 км 9/4 540 м
[Cb cap Ac As Ci sp]
+29.7 +25.4 78 +44 +44 опасность
перегрева
1010.0 1008.3
В 2 8000 м 8/3 600 м
[Cu hum Ac trans Ci fib]
+27.4 +25.0 87 +39 +39 очень
душно
1012.9 1011.2 +32.0
В 1 8000 м в посл. час дождь 8/1 600 м
[Cu hum Ac trans Ci fib]
+26.4 +24.9 91 +38 +38 очень
душно
1013.8 1012.1 0.5
В 1 8000 м в посл. час дождь {гроза} 9/4 570 м
[Cu med, cong As op Ci fib]
+25.0 +24.0 94 +34 +34 очень
душно
1011.7 1010.1 3
В 2 8000 м в посл. час дождь 9/3 600 м
[Cu med, cong As op Ci fib]
+25.0 +24.0 94 +34 +34 очень
душно
1012.2 1010.5 2
ЮВ 1 10 км {дождь} 9/1 600 м
[Cu hum Ac trans Ci sp]
+26.0 +24.5 91 +36 +40 очень
душно
1013.3 1011.7 +24.6 5
З 1 10 км в посл. час дождь 9/5 540 м
[Cu med, cong As op Ci fib]
+28.0 +25.7 87 +41 +49 опасность
перегрева
1013.9 1002.2 3
З 2 10 км {дождь} 9/5 570 м
[Cu med, cong Ac As Ci fib]
+29.3 +25.3 79 +43 +48 опасность
перегрева
1010.7 1009.1 3
штиль 0 10 км 9/3 570 м
[Cu med, cong Ac trans Cs]
+28.8 +25.3 81 +42 +43 опасность
перегрева
1009.7 1008.0
штиль 0 8000 м 8/1 570 м
[Cu med, cong Ac und Ci fib]
+27.4 +25.3 88 +40 +40 очень
душно
1011.6 1009.9 +29.6
В 1 8000 м 6/1 570 м
[Cu med, cong Ac und Ci fib]
+26.4 +24.2 88 +37 +37 очень
душно
1012.5 1010.8
СВ 1 8000 м 9/4 570 м
[Cu med, cong Ac lent Ci fib]
+24.9 +23.2 90 +33 +33 очень
душно
1010.7 1009.0
В 1 8000 м гроза без осадков 8/4 540 м
[Cb cap Ac lent Ci sp]
+24.5 +22.5 89 +32 +32 очень
душно
1010.0 1008.3
В 2 8000 м в посл. час дождь {гроза} 8/5 540 м
[Cb cap Ac und Ci fib]
+25.0 +24.0 94 +34 +36 очень
душно
1011.7 1010.0 +24.1 11 13
В 2 9000 м осадки на расстоянии 9/4 540 м
[Cb cap Ac As Ci fib]
+28.1 +24.2 79 +39 +46 очень
душно
1012.0 1010.4 1
С 2 10 км {дождь} 9/4 570 м
[Cu med, cong Ac As Ci fib]
+30.6 +25.5 74 +45 +51 опасность
перегрева
1009.0 1007.3 1
З 2 10 км 9/3 570 м
[Cu med, cong Ac trans Ci sp]
+29.6 +26.2 82 +45 +46 опасность
перегрева
1008.4 1006.7
В 1 8000 м 6/3 570 м
[Cu med, cong Ac trans Ci fib]
+28.4 +26.4 89 +43 +43 опасность
перегрева
1010.2 1008.5 +30.6
Ю 1 8000 м 8/4 570 м
[Cu med, cong Ac trans Ci fib]
+27.0 +25.5 92 +40 +40 очень
душно
1011.7 1010.0
штиль 0 8000 м 8/4 570 м
[Cu med, cong Ac trans Ci fib]
+26.2 +25.8 98 +39 +39 очень
душно
1010.1 1008.4
ЮВ 1 8000 м в посл. час дождь 9/4 570 м
[Cu med, cong Ac trans Ci fib]
+25.4 +23.9 91 +35 +35 очень
душно
1009.5 1007.8 0.0
В 2 10 км слаб. дождь 9/3 570 м
[Cu med, cong Ac As Ci sp]
+27.0 +24.9 88 +39 +41 очень
душно
1011.3 1009.6 +24.8 0.2
З 1 10 км {дождь} 4/1 570 м
[Cu hum Ac trans Ci fib]
+31.2 +24.9 69 +44 +62 опасность
перегрева
1010.6 1008.9 0.0
З 3 10 км 5/3 570 м
[Cu hum Ac trans Ci fib]
+33.0 +25.4 64 +47 +56 опасность
перегрева
1007.5 1005.9
З 1 10 км 6/4 570 м
[Cu med, cong Ac trans Ci fib]
+30.6 +25.8 76 +46 +47 опасность
перегрева
1007.4 1005.8
штиль 0 8000 м в посл. час дождь 6/3 600 м
[Cu med, cong Ac trans Ci fib]
+28.0 +25.9 88 +42 +42 опасность
перегрева
1010.1 1008.4 +33.2 2
штиль 0 8000 м в посл. час дождь {гроза} 6/3 570 м
[Cu med, cong Ac trans Ci fib]
+26.0 +24.8 93 +37 +37 очень
душно
1011.5 1009.8 0.0
В 1 8000 м {гроза, дождь} 4/1 600 м
[Cu hum Ac trans Ci fib]
+25.8 +24.6 93 +36 +36 очень
душно
1009.6 1007.9 0.0
штиль 0 8000 м 6/1 600 м
[Cu hum Ac trans Ci fib]
+25.2 +24.2 94 +35 +35 очень
душно
1009.1 1007.4
ЮВ 2 10 км 4/1 570 м
[Cu hum Ac trans Ci fib]
+27.4 +24.8 86 +39 +44 очень
душно
1010.3 1008.7 +24.8 2
СЗ 1 10 км 5/3 570 м
[Cu med, cong Ac trans Ci fib]
+31.4 +25.5 71 +46 +61 опасность
перегрева
1009.9 1008.2
З 3 10 км 6/4 570 м
[Cu med, cong Ac trans Ci fib]
+32.4 +25.6 67 +47 +54 опасность
перегрева
1007.8 1006.1
Ю 2 10 км 8/4 570 м
[Cu hum Ac trans Ci fib]
+30.8 +26.0 76 +46 +47 опасность
перегрева
1007.7 1006.1
ЮЗ 1 8000 м в посл. час гроза 8/4 540 м
[Cb cap Ac trans Ci sp]
+28.8 +26.2 86 +44 +44 опасность
перегрева
1009.7 1008.0 +32.4
Местоположение метеостанции Аэропорт Султан Хасануддин (Индонезия): широта -5.07 долгота 119.55 высота над уровнем моря 14 м.
В архиве по умолчанию представлена погода в Аэропорту Султана Хасануддин за последнюю неделю. Архивные данные за месяц целиком и за предыдущие месяцы, начиная с января 2011 года, Вы можете получить, выбрав интересующий диапазон дат из раскрывающегося списка и нажав кнопку "Найти!".
*Определитесь, кто Вы:
Внимание! Время в таблицах - всемирное. Для получения местного времени необходимо прибавить поправку, которая равна 8 ч.
Смотрите также архив погоды в соседних городах и на ближайших метеорологических станциях:
Партнеры нашего сайта:      
Пояснения к столбцам:
  • Ветер - указаны скорость ветра в м/с - средняя за 10 мин, порывы в срок и между сроками (в фигурных скобках) и направление, откуда дует ветер: С - северный,
  • СВ - северо-восточный, В - восточный, ЮВ - юго-восточный, Ю - южный, ЮЗ - юго-западный, З - западный, СЗ - северо-западный.
  • Видимость - горизонтальная дальность видимости в метрах или километрах. При видимости от 1 до 10 км при отсутствии осадков обычно наблюдается дымка, при ухудшении видимости до 1 км и менее - туман. В сухую погоду видимость может ухудшаться дымом, пылью или мглою.
  • Явления - указаны атмосферные явления, наблюдавшиеся в срок или в последний час перед сроком; фигурными скобками обозначены явления, наблюдавшиеся между сроками (за 1-3 часа до срока); квадратными скобками обозначены град или гололедные отложения с указанием их диаметра в мм.
  • Облачность - указаны через наклонную черту общая и нижняя облачность в баллах и высота нижней границы облаков в метрах; квадратными скобками обозначены формы облаков: Ci - перистые, Cs - перисто-слоистые, Cc - перисто-кучевые, Ac - высококучевые, As - высокослоистые, Sc - слоисто-кучевые, Ns - слоисто-дождевые, Cu - кучевые, Cb - кучево-дождевые. Подробнее классификацию облаков см. в Атласе облаков (PDF).
  • T - Температура воздуха - температура, измеренная на высоте 2 м над землей.
  • Td - Температура точки росы - температура, при понижении до которой содержащийся в воздухе водяной пар достигнет насыщения.
  • f - Относительная влажность воздуха - влажноcть воздуха, измеренная на высоте 2 м над землей.
  • Te - Эффективная температура - температура, которую ощущает одетый по сезону человек в тени. Характеристика душности погоды. При расчете учитывается влияние влажности воздуха и скорости ветра на теплоощущения человека.
  • Tes - Эффективная температура на солнце - температура, которую ощущает человек, с поправкой на солнечный нагрев. Характеристика знойности погоды. Зависит от высоты солнца над горизонтом, облачности и скорости ветра. Ночью, в пасмурную погоду, а также при ветре 12 м/с и более поправка равна нулю.
  • P - Атмосферное давление - приведенное к уровню моря атмосферное давление.
  • Po - Атмосферное давление - измеренное на уровне метеостанции атмосферное давление.
  • Tmin - Минимальная температура - минимум температуры воздуха на высоте 2 м над землей.
  • Tmax - Максимальная температура - максимум температуры воздуха на высоте 2 м над землей.
  • R - Количество осадков - Количество выпавших осадков за период времени, мм. При наведении курсора мыши на число - период времени, за который выпало указанное количество осадков.
  • R24 - Количество осадков - Количество выпавших осадков за 24 часа, мм.
  • S - Снежный покров - Высота снежного покрова, см. При наведении курсора мыши на число - состояние снежного покрова и степень покрытия местности в баллах.